Location: Unspecified
(0.0000°N, 0.0000°E)
Time: 01:26:03
(UTC+00:00)

deb Kosmos-1275 - Pass Details

Date: 06 March 2026
Orbit: 928 x 975 km, 82.8° (Epoch: 14 April)

Event Time Altitude Azimuth Distance (km) Brightness Sun altitude
Rises 18:39:13 0° 166° (SSE) 3,580 ? -7.0°
Reaches altitude 10° 18:41:55 10° 157° (SSE) 2,632 ? -7.6°
Maximum altitude 18:47:17 34° 93° (E) 1,467 ? -9.0°
Drops below altitude 10° 18:52:38 10° 30° (NNE) 2,623 ? -10.3°
Sets 18:55:18 0° 21° (NNE) 3,567 ? -11.0°
